Location: Congrier
(47.8099°N, 1.1170°W)
Time: 15:40:05
(UTC+00:00)

Cosmos 1190 Rocket - Pass Details

Date: 28 January 2023
Orbit: 756 x 778 km, 74.1° (Epoch: 26 March)

Event Time Altitude Azimuth Distance (km) Brightness Sun altitude
Rises 19:33:34 0° 209° (SSW) 3,249 7.6 -26.0°
Reaches altitude 10° 19:35:58 10° 212° (SSW) 2,325 6.8 -26.4°
Maximum altitude 19:41:13 66° 295° (WNW) 848 4.3 -27.3°
Enters shadow 19:42:42 46° 358° (N) 1,047 4.6 -27.5°
